Погода в Воронье

Россия / Костромская область     58°00′14″N   42°00′06″E
темп.,
°C
ветер,
м/с
пор.,
м/с
влажн.,
%
обл.,
%
осадки,
мм/ч
давл.,
гПа
погр.,
м
18 мая, вт
вт1800:00+15вюв31187100 0.3 1016220
03:00+14вюв4129275 0.5 1015245
06:00+16вюв4109189 0.0 1015255
09:00+22юв487099 0.0 1015491
12:00+26юв585385 0.0 10151018
15:00+27юв574979 0.0 10151586
18:00+25юв495820 0.0 1014796
21:00+18вюв310875 0.0 1014222
19 мая, ср
ср1900:00+18вюв415855 0.0 1014485
03:00+17вюв414920 0.0 1014412
06:00+17вюв414830 0.0 1014429
09:00+23юв510580 0.0 1014588
12:00+27юв69425 0.0 10131256
15:00+28юв59445 0.0 10132240
18:00+25юв510550 0.0 10121433
21:00+20вюв413740 0.0 1013577
20 мая, чт
чт2000:00+17вюв415770 0.0 1012484
03:00+16вюв414800 0.0 1012408
06:00+17юв413770 0.0 1012433
09:00+22юв59580 0.0 1011717
12:00+26юв610444 0.0 10101744
15:00+26ююв611515 0.1 10092186
18:00+19ю51283100 1.0 1010922
21:00+16юв4129523 3.0 1010627
21 мая, пт
пт2100:00+14юв399844 0.1 1009260
03:00+13юв399938 0.1 1008304
06:00+14ююв41095100 0.0 1008516
09:00+15ююв598599 0.5 1007837
12:00+17ю6117612 2.1 10061295
15:00+13ююз61283100 3.3 10071114
18:00+11ююз51081100 0.2 1009860
21:00+10ююз41088100 0.3 1011711
22 мая, сб
сб2200:00+11зюз4108769 0.0 1012716
03:00+11зюз4983100 0.0 1015972
06:00+10юз49821 0.0 1017379
09:00+15юз49555 0.0 10181621
12:00+17юз684693 0.0 10182403
15:00+18зюз573977 0.0 10192074
18:00+16зюз3551100 0.0 1020943
21:00+11юз1167100 0.0 102010